Tracking 32964 objects as of 20-Jan-2026
HD Live streaming from Space Station
objects crossing your sky now

STARLINK-2469

Track STARLINK-2469 now!
10-day predictions
STARLINK-2469 is classified as:


NORAD ID: 48128
Int'l Code: 2021-027AN
Perigee: 553.3 km
Apogee: 555.2 km
Inclination: 53.1 °
Period: 95.6 minutes
Semi major axis: 6925 km
RCS: Unknown
Launch date: April 7, 2021
Source: United States (US)
Launch site: AIR FORCE EASTERN TEST RANGE (AFETR)
Your satellite tracking list
Your tracking list is empty




NASA's NSSDC Master Catalog

Two Line Element Set (TLE):
1 48128U 21027AN  26019.82432891  .00011813  00000-0  81003-3 0  9999
2 48128  53.0552 321.0704 0001373  88.7085 271.4062 15.06427071266023
Source of the keplerian elements: AFSPC